Theta_e
308 306 308 308 306 308 308 309 310 308 309 311 309 309 306 302 299 298 297 296 295 294 293 293 292 294 296 299 302 304 307 308 314 316 312 309 306 305 309 309 310 311 312 314
308 307 306 306 306 307 308 310 309 309 309 309 309 309 304 301 299 298 297 296 295 294 292 292 292 293 294 295 298 300 303 305 306 307 304 302 300 299 300 301 302 304 305 306
310 311 308 308 308 308 308 308 310 311 309 307 307 308 306 300 299 298 296 295 295 294 293 291 291 291 292 294 296 297 299 302 303 303 303 302 300 298 297 295 295 296 298 299
308 309 311 309 309 309 311 309 310 312 310 312 307 312 308 303 300 298 296 295 294 293 292 291 290 290 291 292 294 294 296 297 298 299 300 299 294 289 287 288 289 290 291 291
315 311 310 311 311 310 313 308 309 309 308 308 309 309 306 302 302 299 296 295 293 292 291 290 289 289 289 290 291 290 291 292 292 292 292 289 287 286 286 286 286 285 285 285
312 307 309 310 308 309 306 308 307 305 306 311 310 311 310 306 305 300 297 295 294 292 291 290 289 288 288 288 288 288 288 287 288 288 287 287 286 286 286 286 286 285 285 285
310 309 308 308 308 307 309 311 315 313 311 315 307 308 309 306 303 301 298 295 293 292 290 289 289 288 288 288 287 287 287 286 286 286 286 286 286 286 285 285 285 285 285 285
313 316 309 307 309 309 309 311 314 313 311 311 310 314 314 302 298 298 297 295 293 291 290 289 289 288 287 287 287 286 286 285 285 286 285 285 286 286 286 286 285 285 284 284
313 317 307 308 307 308 309 311 308 309 296 308 311 309 305 300 298 296 295 293 292 291 290 289 290 288 287 286 286 286 286 285 285 285 286 286 286 286 286 286 285 285 284 283
313 316 310 306 306 305 308 307 313 308 308 308 308 310 308 303 300 296 295 294 293 291 290 289 289 289 287 286 286 286 286 286 286 286 286 286 286 286 286 286 285 285 284 283
310 314 312 309 309 308 308 310 307 308 305 305 303 305 304 305 300 298 296 295 294 292 291 289 289 289 288 287 286 286 286 286 286 286 286 286 286 286 286 286 285 284 283 282
311 311 310 311 307 305 306 308 308 312 309 305 306 309 301 302 300 298 297 296 293 292 291 289 289 289 288 287 287 286 286 286 286 286 286 286 286 286 286 286 285 284 283 282
311 311 306 308 308 306 308 306 306 306 304 305 307 308 301 300 299 297 296 295 294 293 290 288 288 287 287 287 287 286 286 286 286 286 286 286 286 286 285 285 284 283 282 281
311 309 309 315 309 308 309 308 306 305 305 305 310 308 305 303 301 298 296 295 294 293 291 288 286 286 288 287 287 286 286 287 287 286 286 286 286 285 284 284 284 283 280 280
310 311 305 303 304 304 305 307 307 307 309 310 309 308 304 303 302 299 295 294 293 293 291 288 287 286 287 287 287 287 286 287 287 286 286 286 285 285 284 284 283 281 279 279
302 305 302 300 302 303 304 304 305 307 304 304 303 304 299 299 298 298 296 294 293 293 291 288 287 286 287 287 288 287 287 287 286 286 285 285 284 283 282 281 279 278 277 277
305 303 302 308 297 301 309 305 304 304 302 304 306 305 292 295 295 295 294 292 291 292 291 287 286 287 287 288 288 287 287 287 286 285 285 284 282 281 279 278 278 277 276 275
301 303 305 299 297 308 301 291 296 303 302 299 293 291 292 294 292 291 290 291 289 288 289 287 286 287 288 288 288 288 287 286 285 284 284 282 281 279 278 277 277 276 275 274
298 302 299 302 300 303 300 291 291 293 294 292 294 293 291 289 288 288 287 286 287 286 286 288 289 288 288 288 288 287 286 285 284 283 282 280 279 278 277 277 276 275 274 273
297 299 308 294 303 306 295 288 289 291 295 288 291 291 288 287 285 286 286 285 285 287 287 288 288 288 288 289 288 286 285 284 282 281 279 278 278 277 276 275 274 273 272 271
297 296 306 298 305 298 291 288 288 292 294 283 284 287 286 287 287 287 287 285 286 287 287 288 288 289 289 289 287 285 284 282 281 279 278 277 276 276 275 273 272 271 270 269
295 298 295 296 299 301 288 288 292 292 288 286 285 286 286 287 287 286 286 286 285 286 288 288 288 288 289 287 286 284 282 281 279 277 276 275 274 274 273 273 272 271 269 268
292 292 292 295 296 289 288 290 289 289 288 287 287 287 286 286 286 286 285 285 285 286 287 288 287 287 287 285 284 282 281 278 276 275 274 274 273 272 272 271 271 269 268 266
288 286 289 290 288 288 288 288 288 288 289 288 287 287 286 286 286 286 284 284 284 286 286 287 285 285 284 283 281 279 278 276 274 274 273 272 271 271 270 270 269 268 267 266
289 287 286 287 288 288 288 287 288 288 287 287 287 287 286 285 285 285 284 283 284 286 286 285 284 283 283 281 278 276 275 274 273 272 271 271 270 269 268 268 268 267 267 266
287 287 288 288 288 289 289 288 287 287 287 286 286 285 284 285 285 283 283 285 285 285 284 283 282 280 278 277 276 274 274 272 271 270 269 268 268 267 266 266 266 267 266 267
Wind_Speed
1 4 8 13 10 2 4 4 5 3 3 0 7 7 4 5 7 7 6 6 6 7 11 18 22 24 27 29 30 30 30 28 24 25 28 28 30 29 29 27 24 24 22 20
3 7 9 4 5 5 2 2 5 5 2 6 4 6 3 5 3 4 5 6 6 5 8 16 21 26 29 29 31 31 29 29 29 29 26 25 28 30 27 26 26 24 22 21
8 5 6 7 5 6 5 6 4 7 3 1 4 6 4 3 5 5 5 4 4 5 5 6 14 23 26 30 31 30 31 28 25 23 22 22 25 26 27 28 28 27 25 23
6 4 6 5 6 8 5 8 5 4 4 4 1 5 3 5 4 4 5 5 5 4 3 6 12 17 21 24 27 28 30 30 29 28 28 29 31 30 27 28 27 27 27 27
7 6 6 6 6 8 6 5 5 2 3 1 2 0 5 5 5 6 6 5 5 6 6 5 9 12 16 20 24 24 28 29 28 29 30 33 34 30 27 28 28 28 28 28
4 1 5 6 2 4 7 6 6 4 3 1 6 6 4 5 5 6 6 6 6 6 5 6 8 11 15 16 20 23 27 28 28 29 29 30 29 27 27 26 26 25 24 25
1 4 2 3 6 3 4 5 1 3 1 5 2 1 7 3 2 8 14 11 8 6 6 5 7 9 11 15 17 20 24 26 24 26 26 26 25 25 25 24 23 22 22 23
7 3 9 5 4 7 6 6 5 6 3 3 2 6 5 3 3 6 11 9 7 7 6 6 9 10 12 14 16 18 21 23 21 22 22 21 21 22 21 20 19 19 19 18
6 3 2 3 3 2 5 4 4 6 2 2 4 5 2 1 2 5 9 8 9 8 8 8 12 11 12 13 14 15 17 18 17 18 17 18 17 17 18 17 16 16 15 16
7 3 0 2 3 4 4 7 3 2 2 4 5 5 5 6 8 6 9 11 9 7 8 8 14 14 13 13 13 13 13 15 15 14 14 14 14 14 14 14 15 15 15 15
6 3 2 4 6 8 3 3 3 4 4 5 2 5 6 7 10 14 13 12 11 11 9 8 16 16 15 14 14 13 13 12 12 11 10 9 9 10 11 12 14 15 16 18
8 5 4 6 3 3 0 6 6 5 5 2 2 8 4 4 11 14 13 11 8 7 8 10 17 19 18 17 15 15 13 12 10 8 6 4 4 6 8 11 13 14 16 17
9 2 2 5 2 2 4 5 3 4 4 8 5 6 3 3 6 7 8 9 7 8 8 9 16 20 22 20 19 17 15 13 11 8 6 4 2 3 7 10 13 16 18 21
6 5 7 9 5 6 5 6 6 6 5 5 15 12 3 4 6 6 7 7 7 8 8 8 9 17 23 21 20 19 17 15 13 11 9 8 5 6 8 12 15 18 20 24
5 7 5 2 3 3 3 6 14 13 16 11 13 12 7 9 9 8 9 7 8 7 6 8 9 15 22 21 20 19 18 16 15 14 13 11 9 9 10 13 15 18 21 24
2 2 4 2 1 3 3 8 6 14 3 3 2 12 7 6 5 5 8 9 8 7 8 8 9 14 21 24 23 22 20 20 19 18 17 14 12 11 11 12 15 18 21 24
5 6 3 5 3 4 8 12 12 6 6 9 12 13 4 6 8 9 8 8 8 7 7 7 10 18 23 24 23 23 24 21 21 20 18 16 13 12 11 13 16 19 22 24
7 7 2 4 2 7 2 4 1 11 6 8 1 4 5 5 4 3 4 4 7 7 7 7 14 19 21 21 20 22 21 22 22 20 19 16 14 12 12 14 17 20 22 25
1 5 3 4 5 7 2 5 7 8 10 9 9 6 6 5 4 3 6 6 7 8 13 16 18 19 16 15 15 17 17 19 20 20 18 15 13 13 13 16 18 20 22 25
3 4 6 4 4 8 3 2 3 5 7 8 8 6 7 6 2 4 4 5 8 13 15 17 16 13 12 15 16 17 19 20 22 20 17 14 12 14 15 17 18 20 21 24
3 1 11 6 8 6 5 6 4 6 6 4 6 6 7 5 5 4 4 5 15 16 18 15 13 16 19 18 18 21 22 25 21 17 14 12 12 14 15 16 17 20 22 24
7 9 4 2 3 10 7 4 8 5 2 6 6 7 7 7 6 5 6 5 7 14 18 18 18 22 23 21 21 24 25 22 18 15 13 12 12 12 14 17 18 19 21 24
3 6 5 8 5 1 10 4 7 5 6 6 7 7 9 8 7 8 7 8 11 16 23 24 21 22 23 22 23 24 23 19 16 14 13 13 13 13 14 16 18 20 20 21
4 3 2 3 4 6 10 5 1 6 7 6 6 5 6 8 8 8 7 7 10 17 22 24 21 23 26 23 23 22 18 16 15 14 13 13 14 14 14 16 16 19 19 20
3 7 6 3 2 1 6 7 8 8 6 4 5 7 9 7 7 7 6 7 15 20 19 17 20 24 26 23 22 19 16 14 14 14 14 14 15 15 16 16 16 17 18 17
5 6 5 5 8 6 6 9 10 8 8 9 9 6 8 10 10 6 8 18 18 16 14 15 17 18 17 15 19 17 15 15 15 15 14 14 14 15 16 17 20 15 16 17
Wind_Direction
58 128 206 199 200 159 145 180 214 247 224 193 243 249 339 66 71 75 73 67 51 34 8 31 44 57 65 65 66 66 71 76 88 87 83 77 76 72 67 62 58 56 52 49
71 223 228 149 160 175 156 168 250 284 284 184 313 281 76 43 57 102 107 79 64 47 22 27 49 62 65 67 70 69 72 77 80 84 89 88 82 76 73 67 61 57 52 49
180 208 139 171 164 166 205 196 201 221 346 345 341 286 182 54 97 87 77 99 77 69 51 16 40 59 64 67 68 71 74 77 84 92 99 97 90 80 70 63 61 57 55 52
233 253 184 168 197 153 218 204 174 177 122 225 60 279 243 172 149 136 145 141 127 98 60 45 55 64 69 73 81 81 82 83 85 87 90 89 86 84 80 77 73 67 63 59
232 179 186 190 191 165 216 118 150 129 127 56 251 292 256 140 201 197 196 189 166 149 135 105 77 77 79 81 84 85 87 85 86 89 91 91 89 88 83 77 72 66 64 62
228 235 171 204 104 153 139 79 52 55 92 281 229 184 254 196 195 164 167 193 188 169 160 128 111 101 90 89 90 89 86 85 86 86 86 86 88 83 76 68 65 59 55 52
169 212 189 157 88 61 104 111 298 341 24 231 5 188 250 177 149 180 179 186 188 177 169 161 137 121 114 105 99 96 95 92 89 88 87 86 85 81 76 69 62 55 49 44
167 201 167 191 192 170 177 164 156 223 210 261 342 233 260 261 301 239 164 166 167 180 183 176 167 152 133 119 114 108 103 100 94 90 88 85 81 79 74 67 58 54 47 39
154 259 97 89 126 135 182 179 157 103 39 21 234 282 275 43 45 117 143 153 185 194 189 184 181 169 152 139 132 128 119 112 106 99 96 89 85 78 70 62 54 46 37 29
203 117 64 144 111 45 152 158 85 11 178 256 279 273 238 223 202 168 168 191 198 201 189 189 188 179 171 157 148 141 133 127 121 116 105 94 80 67 57 45 39 30 23 15
151 125 219 136 207 170 135 174 67 123 149 175 258 253 210 219 177 182 198 200 199 198 196 193 194 190 182 175 167 160 154 146 140 131 119 102 79 57 43 31 22 11 4 1
193 140 167 195 139 92 164 194 161 164 216 253 146 257 3 252 179 183 197 200 204 199 198 196 198 193 190 190 186 181 173 167 161 151 136 112 64 30 14 10 3 355 351 350
175 198 83 354 32 38 192 206 161 92 79 194 170 259 34 61 159 193 186 209 200 201 195 194 199 199 199 199 196 193 189 188 186 182 187 198 245 330 351 352 347 345 342 343
113 144 171 211 187 137 178 195 188 163 190 179 229 253 171 210 211 198 214 215 198 209 210 200 193 202 207 206 203 202 203 204 206 213 221 234 262 305 328 333 335 336 336 336
169 192 153 86 101 118 194 188 193 199 222 210 246 228 183 207 207 207 207 192 201 231 224 210 203 202 207 211 213 213 216 218 223 228 235 245 264 287 302 312 321 324 328 332
343 109 80 335 90 79 276 235 172 219 187 252 253 256 181 208 203 182 203 195 220 225 222 211 205 196 206 214 217 220 224 227 229 232 235 240 250 268 286 304 317 323 328 329
147 129 114 232 112 102 272 222 195 175 188 171 213 238 180 201 210 217 219 207 224 225 225 212 202 203 212 219 223 225 231 233 232 230 227 230 245 262 285 306 316 323 328 329
148 137 155 134 67 221 250 30 89 204 219 210 334 214 177 196 199 219 209 195 231 229 227 218 213 216 221 226 234 239 240 235 228 219 220 228 242 264 289 304 315 322 325 326
349 130 141 160 202 316 225 186 155 163 246 187 207 216 175 147 109 271 224 206 219 214 214 216 212 210 216 226 236 240 236 222 214 214 219 228 247 271 291 306 314 321 321 321
24 5 195 144 193 222 259 224 144 117 267 206 187 193 156 135 128 242 207 204 221 219 209 207 197 211 229 243 246 240 230 217 216 216 222 237 261 285 300 308 314 318 321 320
116 67 211 194 230 280 197 181 166 121 246 169 170 168 150 175 192 204 163 204 218 219 208 207 221 230 239 245 238 230 225 223 223 224 234 251 269 286 297 306 314 318 319 318
161 172 199 124 190 257 157 66 167 198 87 152 174 176 177 206 229 215 220 238 218 218 220 228 233 240 246 244 232 228 224 226 223 229 242 258 273 286 296 302 309 313 317 317
231 188 180 189 204 272 194 185 192 154 147 192 180 194 192 194 223 227 220 219 223 229 234 242 244 250 252 244 233 226 227 223 226 238 251 263 273 288 295 300 306 310 315 314
241 143 183 106 195 212 207 233 254 185 203 194 208 186 184 199 215 226 216 221 228 245 246 254 249 241 244 234 228 231 226 227 237 250 261 270 281 285 289 295 303 305 306 306
197 131 158 262 236 60 273 227 222 216 226 200 195 204 207 205 239 219 229 225 239 254 260 254 242 241 243 231 221 223 226 235 246 256 263 270 274 283 290 293 297 298 300 297
181 158 174 212 199 174 208 205 212 213 220 225 216 237 225 203 230 212 234 243 248 253 258 246 241 237 234 226 218 223 232 244 252 258 262 266 270 279 286 293 299 293 289 285